Erzurum Bolge, Turkey

9:23 AM +03 on February 24, 2017 (GMT +0300)
Erzurum

Weather History for LTCE - March, 2013

Change the Weather History Date:

Wednesday, March 6, 2013

  Actual Average Record
Temperature  
Mean Temperature 9 °F -  
Max Temperature 23 °F 40 °F 53 °F (2001)
Min Temperature -5 °F 24 °F -10 °F (2015)
Degree Days  
Heating Degree Days 56    
Moisture  
Dew Point 1 °F    
Average Humidity 74    
Maximum Humidity 93    
Minimum Humidity 47    
Precipitation  
Precipitation 0.00 in 0.04 in - ()
Sea Level Pressure  
Sea Level Pressure 30.19 in    
Wind  
Wind Speed 4 mph ()    
Max Wind Speed 16 mph    
Max Gust Speed -    
Visibility 6.8 miles    
Events      
Averages and records for this station are not official NWS values.
T = Trace of Precipitation, MM = Missing Value Source: Averaged Metar Reports

Daily Weather History Graph

Daily Weather History Graph

Search for Another Location

Airport or City:

Trip Planner

Search our weather history database for the weather conditions in past years. The results will help you decide how hot, cold, wet, or windy it might be!

Date:

Astronomy

Mar. 06, 2013 Rise Set
Actual Time 5:41 AM EET 5:12 PM EET
Civil Twilight 5:14 AM EET 5:39 PM EET
Nautical Twilight 4:42 AM EET 6:10 PM EET
Astronomical Twilight 4:11 AM EET 6:42 PM EET
Moon 1:30 AM EET (3/6) 11:31 AM EET (3/6)
Length of Visible Light 12h 25m
Length of Day
11h 31m
Waning Crescent, 33% of the Moon is Illuminated
Mar 6
Waning Crescent
Mar 11
New
Mar 19
First Quarter
Mar 27
Full
Apr 3
Last Quarter

Hourly Weather History & Observations

Time (EET) Temp. Windchill Dew Point Humidity Pressure Visibility Wind Dir Wind Speed Gust Speed Precip Events Conditions
12:20 AM 12.2 °F -1.8 °F 3.2 °F 67% 30.04 in 6.2 mi WNW 11.5 mph - N/A   Scattered Clouds
12:50 AM 14.0 °F -2.0 °F 3.2 °F 62% 30.06 in 6.2 mi NNW 16.1 mph - N/A   Partly Cloudy
1:20 AM 8.6 °F 2.0 °F -0.4 °F 67% 30.06 in - WNW 3.5 mph - N/A   Clear
1:50 AM 6.8 °F -0.1 °F -0.4 °F 72% 30.06 in - West 3.5 mph - N/A   Clear
2:00 AM 6 °F - 3 °F 82%  in 12 mi West 3.5 mph - -  
2:20 AM 5.0 °F -2.1 °F -0.4 °F 78% 30.06 in - Variable 3.5 mph - N/A   Clear
2:50 AM 5.0 °F -4.1 °F -0.4 °F 78% 30.06 in - SSW 4.6 mph - N/A   Clear
3:20 AM 3.2 °F -7.8 °F -2.2 °F 78% 30.09 in - SW 5.8 mph - N/A   Clear
3:50 AM 3.2 °F -7.8 °F -4.0 °F 72% 30.09 in - SSW 5.8 mph - N/A   Clear
4:20 AM -0.4 °F - -5.8 °F 78% 30.09 in - Variable 1.2 mph - N/A   Clear
4:50 AM -0.4 °F -8.3 °F -7.6 °F 72% 30.12 in - SSW 3.5 mph - N/A   Clear
5:20 AM 1.4 °F -8.3 °F -4.0 °F 78% 30.12 in - SSW 4.6 mph - N/A   Clear
5:50 AM -2.2 °F - -5.8 °F 85% 30.15 in - Variable 2.3 mph - N/A   Clear
6:20 AM -2.2 °F - -5.8 °F 85% 30.15 in - Variable 2.3 mph - N/A   Clear
6:50 AM -2.2 °F - -5.8 °F 85% 30.18 in 6.2 mi Variable 2.3 mph - N/A   Partly Cloudy
7:20 AM -0.4 °F - -4.0 °F 85% 30.18 in 6.2 mi Variable 2.3 mph - N/A   Partly Cloudy
7:50 AM 3.2 °F -6.2 °F -2.2 °F 78% 30.21 in 6.2 mi ENE 4.6 mph - N/A   Partly Cloudy
8:00 AM 3 °F - -2 °F 71%  in 12 mi ENE 4.6 mph - -   Scattered Clouds
8:20 AM 8.6 °F - -0.4 °F 67% 30.21 in 6.2 mi Calm Calm - N/A   Partly Cloudy
8:50 AM 6.8 °F -0.1 °F -0.4 °F 72% 30.21 in 6.2 mi ENE 3.5 mph - N/A   Partly Cloudy
9:20 AM 8.6 °F 2.0 °F 1.4 °F 73% 30.21 in 6.2 mi East 3.5 mph - N/A   Partly Cloudy
9:50 AM 12.2 °F 4.3 °F 3.2 °F 67% 30.21 in 6.2 mi East 4.6 mph - N/A   Partly Cloudy
10:20 AM 15.8 °F - 5.0 °F 62% 30.21 in 6.2 mi Variable 2.3 mph - N/A   Partly Cloudy
10:50 AM 21.2 °F - 6.8 °F 54% 30.21 in 6.2 mi Calm Calm - N/A   Partly Cloudy
11:20 AM 15.8 °F 10.2 °F 5.0 °F 62% 30.21 in 6.2 mi West 3.5 mph - N/A   Partly Cloudy
11:50 AM 15.8 °F 8.6 °F 5.0 °F 62% 30.21 in 6.2 mi WSW 4.6 mph - N/A   Partly Cloudy
12:20 PM 17.6 °F 8.2 °F 8.6 °F 68% 30.21 in 6.2 mi NNW 6.9 mph - N/A   Partly Cloudy
12:50 PM 17.6 °F 8.2 °F 6.8 °F 63% 30.21 in 6.2 mi NNW 6.9 mph - N/A   Partly Cloudy
1:20 PM 19.4 °F 14.3 °F 6.8 °F 58% 30.21 in 6.2 mi North 3.5 mph - N/A   Partly Cloudy
1:50 PM 19.4 °F 12.8 °F 6.8 °F 58% 30.21 in 6.2 mi North 4.6 mph - N/A   Partly Cloudy
2:00 PM 19 °F - 7 °F 47%  in 6 mi North 4.6 mph - -   Scattered Clouds
2:20 PM 19.4 °F 11.5 °F 6.8 °F 58% 30.21 in 6.2 mi North 5.8 mph - N/A   Partly Cloudy
2:50 PM 19.4 °F 12.8 °F 6.8 °F 58% 30.21 in 6.2 mi North 4.6 mph - N/A   Partly Cloudy
3:20 PM 19.4 °F 14.3 °F 6.8 °F 58% 30.21 in 6.2 mi North 3.5 mph - N/A   Partly Cloudy
3:50 PM 19.4 °F 14.3 °F 6.8 °F 58% 30.21 in 6.2 mi North 3.5 mph - N/A   Partly Cloudy
4:20 PM 17.6 °F - 6.8 °F 63% 30.21 in 6.2 mi Variable 2.3 mph - N/A   Partly Cloudy
4:50 PM 17.6 °F 12.3 °F 6.8 °F 63% 30.24 in 6.2 mi North 3.5 mph - N/A   Partly Cloudy
5:20 PM 10.4 °F - 6.8 °F 85% 30.24 in 6.2 mi NE 1.2 mph - N/A   Partly Cloudy
5:50 PM 6.8 °F - 1.4 °F 79% 30.24 in - ESE 2.3 mph - N/A   Clear
6:20 PM 6.8 °F - 1.4 °F 79% 30.24 in - Variable 2.3 mph - N/A   Clear
6:50 PM 6.8 °F - 1.4 °F 79% 30.27 in - Variable 2.3 mph - N/A   Clear
7:20 PM 5.0 °F - 1.4 °F 85% 30.24 in - Variable 1.2 mph - N/A   Clear
7:50 PM 3.2 °F - -0.4 °F 85% 30.27 in - Variable 2.3 mph - N/A   Clear
8:00 PM 4 °F - 3 °F 93%  in 12 mi WNW 2.3 mph - -  
8:20 PM 1.4 °F - -0.4 °F 92% 30.27 in - Variable 1.2 mph - N/A   Clear
8:50 PM 1.4 °F - -2.2 °F 85% 30.27 in - Variable 1.2 mph - N/A   Clear
9:20 PM -2.2 °F - -4.0 °F 92% 30.27 in - WSW 1.2 mph - N/A   Clear
9:50 PM -0.4 °F -8.3 °F -2.2 °F 92% 30.27 in - South 3.5 mph - N/A   Clear
10:20 PM 3.2 °F -9.1 °F -0.4 °F 85% 30.27 in - SSW 6.9 mph - N/A   Clear
10:50 PM -0.4 °F - -2.2 °F 92% 30.27 in - Variable 2.3 mph - N/A   Clear
11:20 PM -5.8 °F - -7.6 °F 92% 30.27 in - Variable 2.3 mph - N/A   Clear
11:50 PM -5.8 °F - -7.6 °F 92% 30.27 in - North 2.3 mph - N/A   Clear